RH
36 41 43 46 49 49 47 46 45 42 39 38 39 38 37 35 29 25 24 25 25 26 25 24 23 23 24 24 24 23 21 20 19 18 17 16 16 16 16 15 14 14 14 13 14 15 17 20 23 24 23 22 22 23 25 27 31 34 37 37 37 38 41
33 38 43 46 48 48 47 47 46 44 41 38 38 38 37 35 32 28 26 24 25 25 25 23 21 21 20 20 22 22 21 20 19 17 17 16 17 16 15 14 13 12 12 13 14 16 17 18 20 22 23 22 22 22 22 24 26 30 34 36 36 37 39
30 36 41 44 46 47 48 48 46 43 42 39 37 36 35 34 33 31 28 25 24 25 25 23 22 20 19 19 20 21 21 20 18 17 16 15 15 16 15 14 13 11 12 13 14 15 16 16 17 19 21 23 23 22 21 22 23 26 29 32 33 35 36
27 31 35 39 43 45 47 47 45 44 43 41 37 35 35 34 34 34 31 27 25 25 25 24 22 22 20 20 20 19 19 19 18 16 15 14 14 14 15 14 13 12 12 13 14 14 15 14 14 15 17 21 24 23 21 21 22 23 25 27 29 31 33
24 25 29 35 41 44 45 45 44 43 44 42 38 35 34 35 34 33 32 28 26 25 24 24 23 23 22 21 21 20 19 18 17 16 15 14 14 14 14 13 12 12 12 13 13 14 14 13 13 14 15 18 22 23 23 23 23 23 24 25 26 27 29
23 24 28 36 41 43 43 44 44 44 44 43 40 36 33 32 30 30 29 28 26 24 24 24 24 24 23 23 22 22 21 19 18 17 16 15 14 13 13 12 12 11 11 12 13 13 14 14 15 16 17 19 21 22 23 23 24 24 24 23 23 23 25
21 23 29 36 39 40 43 44 43 44 46 44 41 36 31 28 26 26 27 27 26 25 24 24 24 24 24 23 23 23 22 20 19 18 17 16 15 14 13 12 12 11 11 11 13 14 16 17 18 19 20 20 21 21 21 22 22 22 23 22 22 21 22
19 21 28 34 36 38 43 44 43 45 46 45 42 37 32 28 26 25 26 27 26 26 25 24 24 24 23 23 23 22 21 20 19 18 17 16 16 15 14 13 12 11 12 13 14 16 17 18 19 20 21 22 22 22 22 22 22 22 23 22 22 22 22
18 20 25 31 34 38 43 43 43 46 46 43 41 39 36 31 28 26 25 26 26 26 24 23 23 23 23 23 22 21 21 21 20 18 17 16 16 15 15 15 14 14 14 15 16 17 17 19 20 21 22 22 22 22 21 21 21 22 23 23 22 22 22
18 19 23 29 33 39 43 43 44 45 43 41 41 40 38 34 30 28 27 26 26 26 24 24 24 23 23 23 23 22 22 21 20 18 17 16 16 16 16 16 16 16 15 15 17 18 18 19 21 22 22 21 20 19 18 19 19 20 21 22 22 22 22
16 18 22 29 36 41 43 44 44 43 41 40 40 39 37 33 31 29 27 27 27 27 27 27 26 25 24 23 23 23 23 22 20 19 17 16 16 16 17 17 17 17 16 16 17 18 18 19 21 22 22 20 18 17 17 17 18 18 19 19 20 22 22
16 17 21 29 37 41 42 42 42 42 40 40 41 39 35 32 32 31 28 27 27 28 29 29 28 27 25 23 23 24 23 22 21 19 17 16 16 16 16 16 17 17 17 18 18 18 19 20 21 22 21 20 18 18 17 17 17 17 16 17 17 18 19
16 17 21 30 36 38 38 37 38 40 41 42 42 39 36 33 33 32 29 27 28 29 29 30 30 29 27 26 24 24 23 22 21 19 17 16 15 15 17 18 19 20 19 20 20 20 20 21 23 23 22 20 19 18 17 17 17 16 16 16 16 16 17
16 16 20 28 34 34 34 34 36 39 42 43 43 40 37 36 35 33 30 29 29 30 31 31 31 31 30 29 28 26 24 22 20 18 17 16 16 17 20 22 23 23 22 22 22 22 21 21 23 24 23 21 20 19 18 17 18 17 17 17 17 17 18
17 17 19 24 29 31 32 33 36 39 41 43 43 41 39 40 39 35 32 31 30 30 30 31 33 33 33 33 33 31 28 25 23 21 19 20 20 22 23 24 26 26 25 25 24 23 22 22 24 25 24 23 21 19 19 19 18 18 18 19 20 20 21
18 18 20 24 29 32 33 34 36 38 39 41 43 41 40 41 41 37 35 32 31 31 31 32 33 34 35 35 35 34 32 31 29 26 24 24 24 24 24 23 25 27 27 27 26 25 24 23 24 25 25 23 21 20 20 21 21 21 21 23 24 25 27
18 19 21 25 30 34 35 36 38 38 39 41 41 40 39 40 41 40 36 33 31 32 33 33 34 34 36 38 38 37 37 38 36 34 32 29 27 26 24 22 23 25 27 28 28 27 25 24 24 25 25 23 22 22 24 24 24 24 24 26 29 32 35
19 19 21 26 30 33 34 35 38 38 39 41 41 40 38 39 39 39 36 34 33 34 35 35 37 37 39 40 40 39 39 39 40 39 38 36 34 31 27 24 23 23 25 29 30 29 27 26 25 24 25 25 24 24 25 25 25 25 27 30 33 36 41
20 20 22 27 31 32 32 33 36 38 39 40 40 40 40 39 38 37 35 35 37 38 37 38 40 41 43 43 43 43 43 44 44 44 44 44 42 40 36 33 30 28 28 30 32 32 30 28 25 24 25 26 26 25 26 25 25 27 29 33 36 40 44
23 24 26 29 33 34 34 34 36 40 42 42 41 41 42 41 40 38 37 38 39 39 38 38 41 42 43 44 44 46 46 47 47 47 48 48 47 46 44 42 39 37 35 34 34 33 32 30 27 25 27 29 28 27 27 26 27 29 32 36 39 42 45
28 28 29 32 35 37 38 37 39 44 46 45 44 45 46 45 43 42 40 40 40 41 40 40 41 42 41 42 43 44 45 45 46 46 46 47 46 45 44 44 43 42 42 40 38 35 33 32 30 28 29 32 32 31 30 28 29 32 35 37 41 43 45
33 32 33 35 37 38 39 40 43 45 46 44 46 48 48 48 47 45 44 44 42 42 42 42 43 43 43 41 41 42 44 45 45 45 45 45 44 43 42 41 43 45 47 46 44 41 37 35 34 32 31 34 37 36 33 32 33 36 37 39 42 45 47
35 35 36 37 37 37 39 41 42 43 43 43 44 45 45 47 48 47 46 45 43 42 41 42 42 42 42 42 41 41 42 43 44 44 45 44 42 41 40 40 41 46 50 49 47 46 43 39 38 37 36 37 40 40 37 35 37 39 40 42 45 47 48
36 38 38 38 38 38 38 39 39 39 39 40 41 41 41 42 44 46 45 44 43 41 39 38 39 39 39 39 40 40 40 41 42 43 43 43 42 41 41 41 40 43 49 51 50 49 47 43 40 40 40 40 40 41 40 39 40 42 43 45 47 48 49
37 38 39 40 40 39 39 39 38 36 33 31 32 32 33 34 36 39 41 42 42 41 39 37 36 36 36 37 38 39 39 40 40 41 41 42 42 41 41 42 42 42 45 49 51 51 49 47 44 41 41 42 42 42 43 42 43 44 45 47 48 49 50
40 40 39 38 38 40 41 40 37 35 33 31 30 29 28 29 32 34 36 37 38 39 39 39 38 38 38 37 37 38 38 38 39 39 39 40 40 40 41 42 44 45 43 45 49 51 51 50 48 44 42 43 44 43 43 43 43 44 45 47 48 49 50
44 43 42 40 37 37 38 36 32 30 30 31 31 30 30 29 31 31 31 32 33 35 36 37 38 38 38 37 36 36 36 37 37 37 38 38 37 37 38 39 42 46 46 44 45 49 51 51 51 48 45 45 45 45 44 44 44 43 45 46 46 48 50
44 44 43 40 37 34 33 31 28 27 27 27 26 25 25 26 28 29 28 27 29 31 33 34 35 35 35 34 33 32 32 33 35 36 36 37 36 36 37 38 40 44 47 45 43 44 46 48 48 47 45 44 44 45 45 46 45 45 45 45 46 49 50
48 47 45 40 37 36 34 30 26 26 28 28 26 23 22 21 23 25 27 26 25 25 26 28 31 32 31 29 28 27 27 28 31 33 35 36 35 34 35 37 40 44 47 46 44 42 42 42 42 41 40 41 43 44 46 47 47 46 46 47 49 51 52
49 49 46 40 37 36 35 33 30 29 30 31 29 27 26 25 25 25 28 29 26 24 23 23 24 26 26 25 23 22 22 23 25 28 31 33 33 33 34 36 39 43 46 47 46 44 42 40 39 39 39 40 42 44 46 46 47 47 47 48 50 51 53
51 50 47 41 37 35 35 35 34 35 35 35 34 31 29 30 31 29 29 29 27 25 24 22 22 22 22 22 21 20 19 19 20 22 25 28 30 31 33 35 38 42 45 46 46 46 45 43 41 40 41 41 43 45 46 46 45 46 47 48 50 53 54
54 53 50 45 41 39 37 35 34 35 35 35 35 32 29 29 31 31 30 29 28 26 25 24 22 22 22 21 20 19 18 19 18 19 21 24 27 28 30 34 38 41 43 45 45 45 46 46 45 44 43 43 44 44 45 45 45 46 48 51 53 54 55
55 54 53 49 45 41 38 35 33 33 32 31 32 31 29 27 28 31 31 31 30 28 27 26 24 23 22 21 20 19 20 20 19 19 20 22 25 27 29 32 35 38 41 44 44 45 45 46 47 47 48 48 47 47 48 47 48 49 51 53 55 56 56
56 54 53 51 47 42 38 36 35 32 30 29 29 28 27 26 26 28 30 31 31 29 28 28 27 25 24 22 21 20 20 20 20 21 21 22 24 27 28 30 33 35 37 39 41 43 44 45 45 47 49 50 52 52 51 51 51 52 53 55 55 56 56
55 54 52 52 50 46 41 38 37 33 30 28 27 29 30 29 28 29 29 29 30 29 28 28 28 28 26 24 22 21 21 21 21 21 22 23 25 26 27 29 30 32 32 33 35 38 41 43 44 46 47 49 51 53 54 55 55 55 56 56 55 56 55
53 53 52 51 49 47 43 41 38 34 30 29 29 31 33 31 30 31 31 31 31 30 28 27 28 29 28 26 25 24 25 24 24 23 24 24 25 26 28 28 28 30 30 31 33 35 37 39 41 43 45 47 48 50 52 54 55 56 57 57 58 57 57
53 51 49 46 44 42 42 42 40 37 35 33 32 33 33 32 31 32 32 32 32 32 30 29 29 30 29 29 28 28 28 28 28 27 26 26 26 27 27 28 28 30 31 32 34 35 38 40 41 42 45 46 48 50 51 52 52 54 55 56 57 57 57
54 52 49 46 43 42 43 43 42 40 38 36 35 34 33 33 32 32 32 33 33 33 32 31 31 31 31 30 31 31 31 31 31 30 30 30 30 30 30 29 29 31 34 36 37 39 43 48 49 48 49 50 52 55 56 56 56 57 58 59 60 60 59